www.pogodaiklimat.ru

Погода и климат >> Архив погоды >> Бангладеш >> Силхет


ПОГОДА в Силхете

  • Прогноз погоды в Силхете
  • Монитор погоды в Силхете

АРХИВ ПОГОДЫ в Силхете

Время (UTC), дата Ветер
(напр.,м/с)
 
Видим.   Явления Облачность Т
(С)
Тd
(С)
f
(%)
Тe
(С)
Тes
(С)
Комфортность P
(гПа)
Po
(гПа)
Тmin
(С)
Tmax
(С)
R
(мм)
R24
(мм)
S
(см)
00 9.06 штиль 0 4500 м мгла 10/6 300 м
[Cb calv As op]
+26.5 +25.0 91 +38 +38 очень
душно
1004.0 1000.1
03 9.06 С 2 4000 м мгла 10/6 450 м
[Cb calv As op]
+29.3 +26.0 82 +44 +45 опасность
перегрева
1004.8 1001.0 +26.4
06 9.06 В 2 5000 м мгла 8/4 450 м
[Cb calv Ac trans]
+32.0 +25.0 67 +46 +54 опасность
перегрева
1002.9 999.2
09 9.06 штиль 0 5000 м слаб. ливневой дождь, в посл. час гроза 10/6 240 м
[Cb calv As op]
+29.0 +28.0 94 +48 +49 опасность
перегрева
1001.4 997.6 1
12 9.06 штиль 0 6000 м {гроза} 8/6 450 м
[Cb calv As op]
+27.5 +27.0 97 +43 +43 опасность
перегрева
1000.6 996.7 +32.8 3
15 9.06 В 1 3500 м зарница 8/4 450 м
[Cb calv Ac trans]
+27.2 +26.0 93 +41 +41 опасность
перегрева
1002.4 998.5
18 9.06 В 1 3000 м зарница 8/4 450 м
[Cb calv Ac trans]
+27.5 +27.0 97 +43 +43 опасность
перегрева
1002.6 998.8
21 9.06 штиль 0 3000 м мгла 10/6 450 м
[Cb calv As op]
+26.3 +25.0 93 +38 +38 очень
душно
1002.3 998.5
00 10.06 штиль 0 3500 м зарница 10/6 300 м
[Cb calv As op]
+25.7 +26.0 100 +38 +38 очень
душно
1001.9 998.1 4
03 10.06 В 1 4000 м мгла {дождь} 10/6 300 м
[Cb calv As op]
+26.8 +26.0 95 +40 +41 очень
душно
1003.0 999.2 +25.5 1
06 10.06 З 2 4000 м 10/10 300 м
[Sc diur, vesp Ac cuf]
+27.0 +27.0 100 +42 +42 опасность
перегрева
1003.1 999.2 3
09 10.06 штиль 0 6000 м 4/3 500 м
[Sc diur, vesp Ac lent]
+32.0 +25.0 67 +46 +56 опасность
перегрева
999.7 996.0
12 10.06 СВ 3 6000 м 3/3 500 м
[Sc]
+30.5 +28.0 87 +51 +51 опасность
перегрева
999.4 995.6 +34.2
15 10.06 штиль 0 6000 м зарница 3/3 540 м
[Cb calv]
+27.4 +25.0 87 +39 +39 очень
душно
1001.9 998.1
18 10.06 СВ 1 6000 м зарница 10/6 240 м
[Cb calv As op]
+28.0 +26.0 89 +42 +42 опасность
перегрева
1002.8 999.0
18 11.06 штиль 0 4500 м мгла ясно +28.3 +26.0 87 +42 +42 опасность
перегрева
1001.7 997.9
06 12.06 штиль 0 7000 м 5/5 540 м
[Sc diur, vesp]
+35.4 +25.0 55 +49 +64 опасность
перегрева
1005.0 997.5
12 12.06 З 3 5000 м 4/1 450 м
[Sc Ac trans]
+33.7 +26.0 64 +49 +50 опасность
перегрева
998.1 994.3 +37.0
15 12.06 штиль 0 4000 м мгла ясно +30.7 +28.0 86 +51 +51 опасность
перегрева
1000.3 996.3
18 12.06 штиль 0 4000 м мгла ясно +29.5 +27.0 86 +46 +46 опасность
перегрева
999.5 995.7
06 13.06 ЮВ 1 5000 м мгла 6/4 450 м
[Cb calv Ac trans]
+35.5 +28.0 65 +56 +68 опасность
перегрева
999.2 995.5
09 13.06 З 1 7000 м 5/5 540 м
[Sc diur, vesp]
+35.0 +27.0 63 +53 +60 опасность
перегрева
997.6 993.9
12 13.06 ЮВ 2 7000 м гроза без осадков 8/6 300 м
[Cb calv As op]
+32.0 +26.0 71 +48 +48 опасность
перегрева
996.9 993.1 +36.4
15 13.06 штиль 0 5000 м {дождь} 5/5 540 м
[Sc diur, vesp]
+30.7 +28.0 86 +51 +51 опасность
перегрева
998.5 994.7 0.0
18 13.06 штиль 0 3500 м мгла {дождь} 8/4 450 м
[Cb calv Ac trans]
+30.0 +27.0 84 +47 +47 опасность
перегрева
999.3 995.5 0.0
21 13.06 штиль 0 3000 м гроза, ливневой дождь 10/6 240 м
[Cb calv As op]
+27.8 +27.0 95 +44 +44 опасность
перегрева
999.4 995.7 50
00 14.06 штиль 0 3000 м гроза, ливневой дождь 10/4 240 м
[Sc As op]
+26.0 +25.0 94 +37 +37 очень
душно
999.8 996.0 73
03 14.06 штиль 0 2000 м слаб. дождь {гроза} 10/8 240 м
[Cb calv As op]
+26.0 +25.0 94 +37 +38 очень
душно
1000.1 996.3 +25.4 12
06 14.06 штиль 0 2500 м слаб. дождь {гроза} 10/8 240 м
[Cb calv As op]
+27.5 +27.0 97 +43 +44 опасность
перегрева
1000.0 996.2 14
09 14.06 ЮВ 1 4000 м мгла {дождь} 10/6 300 м
[Cb calv As op]
+29.2 +26.0 83 +44 +45 опасность
перегрева
998.2 994.4 0.0
12 14.06 В 1 5000 м мгла {дождь} 6/3 450 м
[Cb calv Ac trans]
+28.8 +26.0 85 +43 +44 опасность
перегрева
997.9 994.1 +29.8 0.0
15 14.06 штиль 0 5000 м 9/5 450 м
[Sc Ac und]
+27.8 +26.0 90 +42 +42 опасность
перегрева
1000.7 996.9
18 14.06 штиль 0 5000 м 10/6 240 м
[Cb calv As op]
+27.5 +26.0 92 +41 +41 опасность
перегрева
1001.5 997.7
21 14.06 штиль 0 6000 м 10/6 240 м
[Cb calv As op]
+27.0 +26.0 94 +40 +40 очень
душно
1000.3 995.9
00 15.06 ЮВ 1 6000 м гроза без осадков 10/8 240 м
[Cb calv As op]
+26.8 +26.0 95 +40 +40 очень
душно
1000.0 996.2
03 15.06 В 1 2000 м гроза, ливневой дождь 10/8 240 м
[Cb calv As op]
+27.3 +26.0 93 +41 +42 опасность
перегрева
1001.6 997.8 +25.5 0.8
06 15.06 Ю 2 4000 м мгла {гроза} 10/6 300 м
[Cb calv As op]
+29.0 +28.0 94 +48 +50 опасность
перегрева
1000.5 996.7 2
09 15.06 Ю 2 4000 м мгла 10/6 300 м
[Cb calv As op]
+29.5 +27.0 86 +46 +47 опасность
перегрева
998.8 995.0
12 15.06 Ю 1 4000 м мгла 10/6 300 м
[Cb calv As op]
+27.5 +25.0 86 +39 +39 очень
душно
998.7 995.0 +32.8
15 15.06 штиль 0 3500 м мгла 10/6 300 м
[Cb calv As op]
+27.0 +25.0 89 +39 +39 очень
душно
1000.9 997.1
18 15.06 штиль 0 3000 м мгла 10/6 300 м
[Cb calv As op]
+26.5 +26.0 97 +40 +40 очень
душно
1001.4 997.6

 

Местоположение метеостанции Силхет (Бангладеш): широта 24.90 долгота 91.88 высота над уровнем моря 35 м.

В архиве по умолчанию представлена погода в Силхете за последнюю неделю. Архивные данные за месяц целиком и за предыдущие месяцы, начиная с января 2011 года, Вы можете получить, выбрав интересующий диапазон дат из раскрывающегося списка и нажав кнопку "Ввод!".


*Определитесь, кто Вы:
робот инопланетянин человек

Внимание! Время в таблицах - всемирное. Для получения местного времени необходимо прибавить поправку, которая равна 6.5 ч.

Смотрите также архив погоды в соседних городах и на ближайших метеорологических станциях:

Погода в Черапунджи (Мегхалая, Индия) (42 км)
Погода в Кайлашахаре (Трипура, Индия) (66 км)
Погода в Стримангале (Бангладеш) (68 км)
Погода в Шиллонге (Мегхалая, Индия) (75 км)
Погода в Шиллонг аэропорту (Мегхалая, Индия) (89 км)
Погода в Силчаре (Ассам, Индия) (94 км)
Погода в Никли (Бангладеш) (115 км)
Погода в Нетрокона-Садаре (Бангладеш) (116 км)
Погода в Хафлонге (Ассам, Индия) (119 км)
Погода в Агартале (Трипура, Индия) (130 км)

Пояснения к столбцам:

Ветер - указаны скорость ветра в м/с - средняя за 10 мин, порывы в срок и между сроками (в фигурных скобках) и направление, откуда дует ветер: С - северный, СВ - северо-восточный, В - восточный, ЮВ - юго-восточный, Ю - южный, ЮЗ - юго-западный, З - западный, СЗ - северо-западный.
Видимость - горизонтальная дальность видимости в метрах или километрах. При видимости от 1 до 10 км при отсутствии осадков обычно наблюдается дымка, при ухудшении видимости до 1 км и менее - туман. В сухую погоду видимость может ухудшаться дымом, пылью или мглою.
Явления - указаны атмосферные явления, наблюдавшиеся в срок или в последний час перед сроком; фигурными скобками обозначены явления, наблюдавшиеся между сроками (за 1-3 часа до срока); квадратными скобками обозначены град или гололедные отложения с указанием их диаметра в мм.
Облачность - указаны через наклонную черту общая и нижняя облачность в баллах и высота нижней границы облаков в метрах; квадратными скобками обозначены формы облаков: Ci - перистые, Cs - перисто-слоистые, Cc - перисто-кучевые, Ac - высококучевые, As - высокослоистые, Sc - слоисто-кучевые, Ns - слоисто-дождевые, Cu - кучевые, Cb - кучево-дождевые. Подробнее классификацию облаков см. в Атласе облаков (PDF).
T - Температура воздуха - температура, измеренная на высоте 2 м над землей.
Td - Температура точки росы - температура, при понижении до которой содержащийся в воздухе водяной пар достигнет насыщения.
f - Относительная влажность воздуха - влажноcть воздуха, измеренная на высоте 2 м над землей.
Te - Эффективная температура - температура, которую ощущает одетый по сезону человек в тени. Характеристика душности погоды. При расчете учитывается влияние влажности воздуха и скорости ветра на теплоощущения человека.
Tes - Эффективная температура на солнце - температура, которую ощущает человек, с поправкой на солнечный нагрев. Характеристика знойности погоды. Зависит от высоты солнца над горизонтом, облачности и скорости ветра. Ночью, в пасмурную погоду, а также при ветре 12 м/с и более поправка равна нулю.
P - Атмосферное давление - приведенное к уровню моря атмосферное давление.
Po - Атмосферное давление - измеренное на уровне метеостанции атмосферное давление.
Tmin - Минимальная температура - минимум температуры воздуха на высоте 2 м над землей.
Tmax - Максимальная температура - максимум температуры воздуха на высоте 2 м над землей.
R - Количество осадков - Количество выпавших осадков за период времени, мм. При наведении курсора мыши на число - период времени, за который выпало указанное количество осадков.
R24 - Количество осадков - Количество выпавших осадков за 24 часа, мм.
S - Снежный покров - Высота снежного покрова, см. При наведении курсора мыши на число - состояние снежного покрова и степень покрытия местности в баллах.